Time,TemperatureF,DewpointF,PressureIn,WindDirection,WindDirectionDegrees,WindSpeedMPH,WindSpeedGustMPH,Humidity,HourlyPrecipIn,Conditions,Clouds,dailyrainin,SoftwareType,DateUTC
2013-01-01 00:00:00,50.0,48.9,30.22,WNW,287,0.0,0.0,96,0.00,,,0.00,WUHU216DAVISVP2,2013-01-01 05:00:00,
2013-01-01 00:01:00,50.0,48.9,30.22,WNW,287,0.0,0.0,96,0.00,,,0.00,WUHU216DAVISVP2,2013-01-01 05:01:00,
2013-01-01 00:06:00,50.0,48.9,30.22,WNW,286,0.0,0.0,96,0.00,,,0.00,WUHU216DAVISVP2,2013-01-01 05:06:00,
2013-01-01 00:11:00,49.9,48.8,30.22,WNW,286,0.0,0.0,96,0.00,,,0.00,WUHU216DAVISVP2,2013-01-01 05:11:00,
2013-01-01 00:16:00,49.9,48.8,30.22,WNW,286,0.0,0.0,96,0.00,,,0.00,WUHU216DAVISVP2,2013-01-01 05:16:00,
2013-01-01 00:21:00,49.7,48.6,30.22,WNW,286,0.0,0.0,96,0.00,,,0.00,WUHU216DAVISVP2,2013-01-01 05:21:00,
2013-01-01 00:26:00,49.7,48.6,30.21,WNW,286,0.0,0.0,96,0.00,,,0.00,WUHU216DAVISVP2,2013-01-01 05:26:00,
2013-01-01 00:31:00,49.6,48.5,30.21,WNW,286,0.0,0.0,96,0.00,,,0.00,WUHU216DAVISVP2,2013-01-01 05:31:00,
2013-01-01 00:36:00,49.5,48.4,30.21,WNW,286,0.0,0.0,96,0.00,,,0.00,WUHU216DAVISVP2,2013-01-01 05:36:00,
2013-01-01 00:41:00,49.5,48.4,30.21,WNW,286,0.0,0.0,96,0.00,,,0.00,WUHU216DAVISVP2,2013-01-01 05:41:00,
2013-01-01 00:46:00,49.5,48.4,30.20,WNW,286,0.0,0.0,96,0.00,,,0.00,WUHU216DAVISVP2,2013-01-01 05:46:00,
2013-01-01 00:51:00,49.6,48.5,30.20,WNW,286,0.0,0.0,96,0.00,,,0.00,WUHU216DAVISVP2,2013-01-01 05:51:00,
2013-01-01 00:56:00,49.5,48.4,30.21,WNW,286,0.0,0.0,96,0.00,,,0.00,WUHU216DAVISVP2,2013-01-01 05:56:00,
2013-01-01 01:01:00,49.3,48.2,30.21,WNW,286,0.0,0.0,96,0.00,,,0.00,WUHU216DAVISVP2,2013-01-01 06:01:00,
2013-01-01 01:06:00,49.2,48.1,30.21,WNW,286,0.0,0.0,96,0.00,,,0.00,WUHU216DAVISVP2,2013-01-01 06:06:00,
2013-01-01 01:11:00,49.2,48.1,30.21,WNW,286,0.0,0.0,96,0.00,,,0.00,WUHU216DAVISVP2,2013-01-01 06:11:00,
2013-01-01 01:16:00,49.2,48.1,30.20,WNW,286,0.0,0.0,96,0.00,,,0.00,WUHU216DAVISVP2,2013-01-01 06:16:00,
2013-01-01 01:21:00,49.3,48.2,30.20,WNW,286,0.0,0.0,96,0.00,,,0.00,WUHU216DAVISVP2,2013-01-01 06:21:00,
2013-01-01 01:26:00,49.5,48.7,30.20,WNW,286,0.0,0.0,97,0.00,,,0.00,WUHU216DAVISVP2,2013-01-01 06:26:00,
2013-01-01 01:31:00,49.6,48.8,30.20,WNW,286,0.0,0.0,97,0.00,,,0.00,WUHU216DAVISVP2,2013-01-01 06:31:00,
2013-01-01 01:36:00,49.6,48.8,30.19,WNW,286,0.0,0.0,97,0.00,,,0.00,WUHU216DAVISVP2,2013-01-01 06:36:00,
2013-01-01 01:41:00,49.6,48.8,30.19,WNW,286,0.0,0.0,97,0.00,,,0.00,WUHU216DAVISVP2,2013-01-01 06:41:00,
2013-01-01 01:46:00,49.6,48.8,30.19,WNW,286,0.0,0.0,97,0.00,,,0.00,WUHU216DAVISVP2,2013-01-01 06:46:00,
2013-01-01 01:51:00,49.6,48.8,30.19,WNW,286,0.0,0.0,97,0.00,,,0.00,WUHU216DAVISVP2,2013-01-01 06:51:00,
2013-01-01 01:56:00,49.6,48.8,30.19,WNW,286,0.0,0.0,97,0.00,,,0.00,WUHU216DAVISVP2,2013-01-01 06:56:00,
2013-01-01 02:01:00,49.5,48.7,30.18,WNW,286,0.0,0.0,97,0.00,,,0.00,WUHU216DAVISVP2,2013-01-01 07:01:00,
2013-01-01 02:06:00,49.5,48.7,30.18,WNW,286,0.0,0.0,97,0.00,,,0.00,WUHU216DAVISVP2,2013-01-01 07:06:00,
2013-01-01 02:11:00,49.4,48.6,30.18,WNW,286,0.0,0.0,97,0.00,,,0.00,WUHU216DAVISVP2,2013-01-01 07:11:00,
2013-01-01 02:16:00,49.3,48.2,30.18,WNW,286,0.0,0.0,96,0.00,,,0.00,WUHU216DAVISVP2,2013-01-01 07:16:00,
2013-01-01 02:21:00,49.2,48.1,30.18,WNW,286,0.0,0.0,96,0.00,,,0.00,WUHU216DAVISVP2,2013-01-01 07:21:00,
2013-01-01 02:26:00,49.2,48.1,30.17,WNW,286,0.0,0.0,96,0.00,,,0.00,WUHU216DAVISVP2,2013-01-01 07:26:00,
2013-01-01 02:31:00,49.1,48.0,30.17,WNW,286,0.0,0.0,96,0.00,,,0.00,WUHU216DAVISVP2,2013-01-01 07:31:00,
2013-01-01 02:36:00,49.1,48.0,30.17,WNW,286,0.0,0.0,96,0.00,,,0.00,WUHU216DAVISVP2,2013-01-01 07:36:00,
2013-01-01 02:41:00,49.1,48.0,30.17,WNW,286,0.0,0.0,96,0.00,,,0.00,WUHU216DAVISVP2,2013-01-01 07:41:00,
2013-01-01 02:46:00,49.1,48.3,30.17,WNW,286,0.0,0.0,97,0.00,,,0.00,WUHU216DAVISVP2,2013-01-01 07:46:00,
2013-01-01 02:51:00,49.2,48.4,30.16,WNW,286,0.0,0.0,97,0.00,,,0.00,WUHU216DAVISVP2,2013-01-01 07:51:00,
2013-01-01 02:56:00,49.3,48.5,30.16,WNW,286,0.0,0.0,97,0.00,,,0.00,WUHU216DAVISVP2,2013-01-01 07:56:00,
2013-01-01 03:01:00,49.5,48.7,30.16,WNW,286,0.0,0.0,97,0.00,,,0.00,WUHU216DAVISVP2,2013-01-01 08:01:00,
2013-01-01 03:06:00,49.6,48.8,30.16,WNW,286,0.0,0.0,97,0.00,,,0.00,WUHU216DAVISVP2,2013-01-01 08:06:00,
2013-01-01 03:11:00,49.6,48.8,30.16,WNW,286,0.0,0.0,97,0.00,,,0.00,WUHU216DAVISVP2,2013-01-01 08:11:00,
2013-01-01 03:16:00,49.6,48.8,30.16,WNW,286,0.0,0.0,97,0.00,,,0.00,WUHU216DAVISVP2,2013-01-01 08:16:00,
2013-01-01 03:21:00,49.5,48.7,30.16,WNW,286,0.0,0.0,97,0.00,,,0.00,WUHU216DAVISVP2,2013-01-01 08:21:00,
2013-01-01 03:26:00,49.5,48.7,30.16,WNW,286,0.0,0.0,97,0.00,,,0.00,WUHU216DAVISVP2,2013-01-01 08:26:00,
2013-01-01 03:31:00,49.5,48.7,30.16,WNW,286,0.0,0.0,97,0.00,,,0.00,WUHU216DAVISVP2,2013-01-01 08:31:00,
2013-01-01 03:36:00,49.5,48.7,30.16,WNW,286,0.0,0.0,97,0.00,,,0.00,WUHU216DAVISVP2,2013-01-01 08:36:00,
2013-01-01 03:41:00,49.5,48.7,30.16,WNW,286,0.0,0.0,97,0.00,,,0.00,WUHU216DAVISVP2,2013-01-01 08:41:00,
2013-01-01 03:46:00,49.5,48.7,30.16,WNW,286,0.0,0.0,97,0.00,,,0.00,WUHU216DAVISVP2,2013-01-01 08:46:00,
2013-01-01 03:51:00,49.4,48.6,30.16,WNW,286,0.0,0.0,97,0.00,,,0.00,WUHU216DAVISVP2,2013-01-01 08:51:00,
2013-01-01 03:56:00,49.3,48.5,30.16,WNW,286,0.0,0.0,97,0.00,,,0.00,WUHU216DAVISVP2,2013-01-01 08:56:00,
2013-01-01 04:01:00,49.2,48.4,30.16,WNW,286,0.0,0.0,97,0.00,,,0.00,WUHU216DAVISVP2,2013-01-01 09:01:00,
2013-01-01 04:06:00,49.2,48.4,30.16,WNW,286,0.0,0.0,97,0.00,,,0.00,WUHU216DAVISVP2,2013-01-01 09:06:00,
2013-01-01 04:11:00,49.3,48.5,30.16,WNW,286,0.0,0.0,97,0.00,,,0.00,WUHU216DAVISVP2,2013-01-01 09:11:00,
2013-01-01 04:16:00,49.4,48.6,30.16,WNW,286,0.0,0.0,97,0.00,,,0.00,WUHU216DAVISVP2,2013-01-01 09:16:00,
2013-01-01 04:21:00,49.6,48.8,30.16,WNW,286,0.0,0.0,97,0.00,,,0.00,WUHU216DAVISVP2,2013-01-01 09:21:00,
2013-01-01 04:26:00,49.6,48.8,30.16,WNW,286,0.0,0.0,97,0.00,,,0.00,WUHU216DAVISVP2,2013-01-01 09:26:00,
2013-01-01 04:31:00,49.8,49.2,30.16,WNW,286,0.0,0.0,98,0.00,,,0.00,WUHU216DAVISVP2,2013-01-01 09:31:00,
2013-01-01 04:36:00,50.0,49.4,30.16,WNW,286,0.0,0.0,98,0.00,,,0.00,WUHU216DAVISVP2,2013-01-01 09:36:00,
2013-01-01 04:41:00,50.4,49.8,30.16,WNW,286,0.0,0.0,98,0.00,,,0.00,WUHU216DAVISVP2,2013-01-01 09:41:00,
2013-01-01 04:46:00,50.6,50.0,30.16,WNW,286,0.0,0.0,98,0.00,,,0.00,WUHU216DAVISVP2,2013-01-01 09:46:00,
2013-01-01 04:51:00,50.8,50.2,30.16,WNW,286,0.0,0.0,98,0.00,,,0.00,WUHU216DAVISVP2,2013-01-01 09:51:00,
2013-01-01 04:56:00,51.0,50.4,30.16,WNW,286,0.0,0.0,98,0.00,,,0.00,WUHU216DAVISVP2,2013-01-01 09:56:00,
2013-01-01 05:01:00,51.2,50.6,30.16,WNW,286,0.0,0.0,98,0.00,,,0.00,WUHU216DAVISVP2,2013-01-01 10:01:00,
2013-01-01 05:06:00,51.4,50.8,30.16,WNW,286,0.0,0.0,98,0.00,,,0.00,WUHU216DAVISVP2,2013-01-01 10:06:00,
2013-01-01 05:11:00,51.6,51.0,30.16,WNW,286,0.0,0.0,98,0.00,,,0.00,WUHU216DAVISVP2,2013-01-01 10:11:00,
2013-01-01 05:16:00,52.0,51.4,30.15,WNW,286,0.0,0.0,98,0.00,,,0.00,WUHU216DAVISVP2,2013-01-01 10:16:00,
2013-01-01 05:21:00,52.4,51.8,30.15,WNW,286,0.0,0.0,98,0.00,,,0.00,WUHU216DAVISVP2,2013-01-01 10:21:00,
2013-01-01 05:26:00,52.8,52.2,30.15,WNW,286,0.0,0.0,98,0.00,,,0.00,WUHU216DAVISVP2,2013-01-01 10:26:00,
2013-01-01 05:31:00,53.1,52.5,30.15,WNW,286,0.0,0.0,98,0.00,,,0.00,WUHU216DAVISVP2,2013-01-01 10:31:00,
2013-01-01 05:36:00,53.3,52.7,30.15,WNW,286,0.0,0.0,98,0.00,,,0.00,WUHU216DAVISVP2,2013-01-01 10:36:00,
2013-01-01 05:41:00,53.5,52.9,30.15,WNW,286,0.0,0.0,98,0.00,,,0.00,WUHU216DAVISVP2,2013-01-01 10:41:00,
2013-01-01 05:46:00,53.5,52.9,30.15,WNW,286,0.0,0.0,98,0.00,,,0.00,WUHU216DAVISVP2,2013-01-01 10:46:00,
2013-01-01 05:51:00,53.7,53.1,30.15,WNW,286,0.0,0.0,98,0.00,,,0.00,WUHU216DAVISVP2,2013-01-01 10:51:00,
2013-01-01 05:56:00,53.7,53.1,30.16,WNW,286,0.0,0.0,98,0.00,,,0.00,WUHU216DAVISVP2,2013-01-01 10:56:00,
2013-01-01 06:01:00,53.7,53.1,30.16,WNW,286,0.0,0.0,98,0.00,,,0.00,WUHU216DAVISVP2,2013-01-01 11:01:00,
2013-01-01 06:06:00,53.7,53.1,30.15,WNW,286,0.0,0.0,98,0.00,,,0.00,WUHU216DAVISVP2,2013-01-01 11:06:00,
2013-01-01 06:11:00,53.8,53.2,30.15,WNW,286,0.0,0.0,98,0.00,,,0.00,WUHU216DAVISVP2,2013-01-01 11:11:00,
2013-01-01 06:16:00,53.9,53.3,30.15,WNW,286,0.0,0.0,98,0.00,,,0.00,WUHU216DAVISVP2,2013-01-01 11:16:00,
2013-01-01 06:21:00,54.1,53.5,30.15,WNW,286,0.0,0.0,98,0.00,,,0.00,WUHU216DAVISVP2,2013-01-01 11:21:00,
2013-01-01 06:27:00,54.1,53.5,30.14,WNW,286,0.0,0.0,98,0.00,,,0.00,WUHU216DAVISVP2,2013-01-01 11:27:00,
2013-01-01 06:32:00,54.2,53.6,30.13,WNW,286,0.0,0.0,98,0.00,,,0.00,WUHU216DAVISVP2,2013-01-01 11:32:00,
2013-01-01 06:37:00,54.4,53.8,30.13,NW,314,0.0,1.0,98,0.00,,,0.00,WUHU216DAVISVP2,2013-01-01 11:37:00,
2013-01-01 06:42:00,54.5,53.9,30.13,NW,314,0.0,1.0,98,0.00,,,0.00,WUHU216DAVISVP2,2013-01-01 11:42:00,
2013-01-01 06:47:00,54.6,54.0,30.13,West,281,0.0,1.0,98,0.00,,,0.00,WUHU216DAVISVP2,2013-01-01 11:47:00,
2013-01-01 06:52:00,54.6,54.0,30.13,ENE,57,0.0,1.0,98,0.00,,,0.00,WUHU216DAVISVP2,2013-01-01 11:52:00,
2013-01-01 06:57:00,54.7,54.1,30.13,ENE,57,0.0,1.0,98,0.00,,,0.00,WUHU216DAVISVP2,2013-01-01 11:57:00,
2013-01-01 07:02:00,54.8,54.2,30.13,ENE,57,0.0,0.0,98,0.00,,,0.00,WUHU216DAVISVP2,2013-01-01 12:02:00,
2013-01-01 07:07:00,54.8,54.2,30.13,ENE,57,0.0,1.0,98,0.00,,,0.00,WUHU216DAVISVP2,2013-01-01 12:07:00,
2013-01-01 07:12:00,54.7,54.1,30.13,ENE,57,0.0,1.0,98,0.00,,,0.00,WUHU216DAVISVP2,2013-01-01 12:12:00,
2013-01-01 07:17:00,54.7,54.1,30.13,ENE,57,0.0,0.0,98,0.00,,,0.00,WUHU216DAVISVP2,2013-01-01 12:17:00,
2013-01-01 07:22:00,54.7,54.1,30.13,ENE,57,0.0,0.0,98,0.00,,,0.00,WUHU216DAVISVP2,2013-01-01 12:22:00,
2013-01-01 07:27:00,54.7,54.1,30.13,ENE,57,0.0,0.0,98,0.00,,,0.00,WUHU216DAVISVP2,2013-01-01 12:27:00,
2013-01-01 07:32:00,54.6,54.0,30.13,ENE,57,0.0,0.0,98,0.00,,,0.00,WUHU216DAVISVP2,2013-01-01 12:32:00,
2013-01-01 07:37:00,54.7,54.1,30.13,ENE,57,0.0,0.0,98,0.00,,,0.00,WUHU216DAVISVP2,2013-01-01 12:37:00,
2013-01-01 07:42:00,54.7,54.1,30.13,ENE,57,0.0,0.0,98,0.00,,,0.00,WUHU216DAVISVP2,2013-01-01 12:42:00,
2013-01-01 07:47:00,54.8,54.2,30.13,ENE,57,0.0,0.0,98,0.00,,,0.00,WUHU216DAVISVP2,2013-01-01 12:47:00,
2013-01-01 07:52:00,54.8,54.2,30.13,ENE,57,0.0,0.0,98,0.00,,,0.00,WUHU216DAVISVP2,2013-01-01 12:52:00,
2013-01-01 07:57:00,54.9,54.3,30.13,ENE,57,0.0,0.0,98,0.00,,,0.00,WUHU216DAVISVP2,2013-01-01 12:57:00,
2013-01-01 08:02:00,54.9,54.3,30.13,ENE,57,0.0,0.0,98,0.00,,,0.00,WUHU216DAVISVP2,2013-01-01 13:02:00,
2013-01-01 08:07:00,54.9,54.3,30.13,ENE,57,0.0,0.0,98,0.00,,,0.00,WUHU216DAVISVP2,2013-01-01 13:07:00,
2013-01-01 08:12:00,55.1,54.5,30.13,ENE,57,0.0,0.0,98,0.00,,,0.00,WUHU216DAVISVP2,2013-01-01 13:12:00,
2013-01-01 08:17:00,55.2,54.6,30.13,ENE,57,0.0,0.0,98,0.00,,,0.00,WUHU216DAVISVP2,2013-01-01 13:17:00,
2013-01-01 08:22:00,55.3,54.7,30.14,ENE,57,0.0,0.0,98,0.00,,,0.00,WUHU216DAVISVP2,2013-01-01 13:22:00,
2013-01-01 08:27:00,55.5,54.9,30.14,ENE,57,0.0,0.0,98,0.00,,,0.00,WUHU216DAVISVP2,2013-01-01 13:27:00,
2013-01-01 08:32:00,55.7,55.1,30.14,ENE,57,0.0,0.0,98,0.00,,,0.00,WUHU216DAVISVP2,2013-01-01 13:32:00,
2013-01-01 08:37:00,55.9,55.3,30.15,ENE,57,0.0,1.0,98,0.00,,,0.00,WUHU216DAVISVP2,2013-01-01 13:37:00,
2013-01-01 08:42:00,56.0,55.4,30.15,ENE,57,0.0,1.0,98,0.00,,,0.00,WUHU216DAVISVP2,2013-01-01 13:42:00,
2013-01-01 08:47:00,56.2,55.6,30.15,ENE,57,0.0,1.0,98,0.00,,,0.00,WUHU216DAVISVP2,2013-01-01 13:47:00,
2013-01-01 08:52:00,56.4,55.8,30.15,ENE,57,0.0,1.0,98,0.00,,,0.00,WUHU216DAVISVP2,2013-01-01 13:52:00,
2013-01-01 08:57:00,56.7,56.1,30.15,ENE,57,0.0,0.0,98,0.00,,,0.00,WUHU216DAVISVP2,2013-01-01 13:57:00,
2013-01-01 09:02:00,57.0,56.4,30.16,ENE,57,0.0,0.0,98,0.00,,,0.00,WUHU216DAVISVP2,2013-01-01 14:02:00,
2013-01-01 09:07:00,57.3,56.7,30.16,ENE,57,0.0,0.0,98,0.00,,,0.00,WUHU216DAVISVP2,2013-01-01 14:07:00,
2013-01-01 09:12:00,57.5,56.9,30.16,ENE,57,0.0,0.0,98,0.00,,,0.00,WUHU216DAVISVP2,2013-01-01 14:12:00,
2013-01-01 09:17:00,57.8,57.2,30.16,ENE,57,0.0,1.0,98,0.00,,,0.00,WUHU216DAVISVP2,2013-01-01 14:17:00,
2013-01-01 09:22:00,58.0,57.4,30.16,ENE,57,0.0,1.0,98,0.00,,,0.00,WUHU216DAVISVP2,2013-01-01 14:22:00,
2013-01-01 09:27:00,58.3,57.7,30.16,ENE,57,0.0,1.0,98,0.00,,,0.00,WUHU216DAVISVP2,2013-01-01 14:27:00,
2013-01-01 09:32:00,58.7,58.1,30.15,ENE,58,0.0,1.0,98,0.00,,,0.00,WUHU216DAVISVP2,2013-01-01 14:32:00,
2013-01-01 09:37:00,59.0,58.4,30.16,ENE,58,0.0,1.0,98,0.00,,,0.00,WUHU216DAVISVP2,2013-01-01 14:37:00,
2013-01-01 09:42:00,59.4,58.5,30.16,ENE,57,0.0,1.0,97,0.00,,,0.00,WUHU216DAVISVP2,2013-01-01 14:42:00,
2013-01-01 09:47:00,59.9,59.0,30.16,ENE,72,0.0,1.0,97,0.00,,,0.00,WUHU216DAVISVP2,2013-01-01 14:47:00,
2013-01-01 09:52:00,60.4,59.2,30.16,ENE,61,0.0,2.0,96,0.00,,,0.00,WUHU216DAVISVP2,2013-01-01 14:52:00,
2013-01-01 09:57:00,60.8,59.3,30.16,ENE,61,0.0,2.0,95,0.00,,,0.00,WUHU216DAVISVP2,2013-01-01 14:57:00,
2013-01-01 10:02:00,61.3,59.8,30.16,ENE,61,0.0,2.0,95,0.00,,,0.00,WUHU216DAVISVP2,2013-01-01 15:02:00,
2013-01-01 10:07:00,61.7,59.9,30.16,SE,125,0.0,2.0,94,0.00,,,0.00,WUHU216DAVISVP2,2013-01-01 15:07:00,
2013-01-01 10:12:00,62.3,59.9,30.16,SE,146,0.0,2.0,92,0.00,,,0.00,WUHU216DAVISVP2,2013-01-01 15:12:00,
2013-01-01 10:17:00,62.8,60.1,30.16,SE,146,0.0,2.0,91,0.00,,,0.00,WUHU216DAVISVP2,2013-01-01 15:17:00,
2013-01-01 10:22:00,63.3,60.0,30.16,SSW,209,0.0,4.0,89,0.00,,,0.00,WUHU216DAVISVP2,2013-01-01 15:22:00,
2013-01-01 10:27:00,63.9,60.0,30.16,SSW,208,0.0,4.0,87,0.00,,,0.00,WUHU216DAVISVP2,2013-01-01 15:27:00,
2013-01-01 10:32:00,64.4,60.1,30.16,ENE,76,1.0,3.0,86,0.00,,,0.00,WUHU216DAVISVP2,2013-01-01 15:32:00,
2013-01-01 10:37:00,64.9,60.3,30.16,SSE,153,0.0,2.0,85,0.00,,,0.00,WUHU216DAVISVP2,2013-01-01 15:37:00,
2013-01-01 10:42:00,65.3,60.4,30.15,SSW,201,0.0,2.0,84,0.00,,,0.00,WUHU216DAVISVP2,2013-01-01 15:42:00,
2013-01-01 10:47:00,65.8,60.5,30.15,SSW,198,0.0,2.0,83,0.00,,,0.00,WUHU216DAVISVP2,2013-01-01 15:47:00,
2013-01-01 10:52:00,66.2,60.6,30.15,SSW,212,0.0,1.0,82,0.00,,,0.00,WUHU216DAVISVP2,2013-01-01 15:52:00,
2013-01-01 10:57:00,66.7,60.4,30.15,SW,219,1.0,6.0,80,0.00,,,0.00,WUHU216DAVISVP2,2013-01-01 15:57:00,
2013-01-01 11:02:00,67.2,60.2,30.15,SSW,210,0.0,6.0,78,0.00,,,0.00,WUHU216DAVISVP2,2013-01-01 16:02:00,
2013-01-01 11:07:00,67.5,60.5,30.15,East,84,3.0,5.0,78,0.00,,,0.00,WUHU216DAVISVP2,2013-01-01 16:07:00,
2013-01-01 11:12:00,67.9,60.5,30.15,SE,124,0.0,5.0,77,0.00,,,0.00,WUHU216DAVISVP2,2013-01-01 16:12:00,
2013-01-01 11:17:00,68.3,60.6,30.14,SSW,192,0.0,5.0,76,0.00,,,0.00,WUHU216DAVISVP2,2013-01-01 16:17:00,
2013-01-01 11:22:00,68.6,60.5,30.14,SSE,161,0.0,5.0,75,0.00,,,0.00,WUHU216DAVISVP2,2013-01-01 16:22:00,
2013-01-01 11:27:00,68.9,60.8,30.14,South,174,0.0,7.0,75,0.00,,,0.00,WUHU216DAVISVP2,2013-01-01 16:27:00,
2013-01-01 11:32:00,69.1,60.6,30.13,SW,232,0.0,7.0,74,0.00,,,0.00,WUHU216DAVISVP2,2013-01-01 16:32:00,
2013-01-01 11:37:00,69.3,60.8,30.13,NNE,28,0.0,2.0,74,0.00,,,0.00,WUHU216DAVISVP2,2013-01-01 16:37:00,
2013-01-01 11:42:00,69.8,60.9,30.13,NNE,17,0.0,3.0,73,0.00,,,0.00,WUHU216DAVISVP2,2013-01-01 16:42:00,
2013-01-01 11:47:00,70.1,61.2,30.12,SSE,160,1.0,3.0,73,0.00,,,0.00,WUHU216DAVISVP2,2013-01-01 16:47:00,
2013-01-01 11:52:00,70.5,61.2,30.12,SSW,201,0.0,5.0,72,0.00,,,0.00,WUHU216DAVISVP2,2013-01-01 16:52:00,
2013-01-01 11:57:00,70.7,61.0,30.12,ESE,110,0.0,5.0,71,0.00,,,0.00,WUHU216DAVISVP2,2013-01-01 16:57:00,
2013-01-01 12:02:00,71.0,61.3,30.12,SSW,202,1.0,6.0,71,0.00,,,0.00,WUHU216DAVISVP2,2013-01-01 17:02:00,
2013-01-01 12:07:00,71.1,61.4,30.12,NW,319,0.0,6.0,71,0.00,,,0.00,WUHU216DAVISVP2,2013-01-01 17:07:00,
2013-01-01 12:12:00,71.0,61.3,30.11,NNW,335,0.0,2.0,71,0.00,,,0.00,WUHU216DAVISVP2,2013-01-01 17:12:00,
2013-01-01 12:17:00,71.0,61.3,30.11,ESE,105,2.0,3.0,71,0.00,,,0.00,WUHU216DAVISVP2,2013-01-01 17:17:00,
2013-01-01 12:22:00,71.0,61.3,30.10,ENE,74,0.0,3.0,71,0.00,,,0.00,WUHU216DAVISVP2,2013-01-01 17:22:00,
2013-01-01 12:27:00,71.1,61.0,30.10,SE,144,0.0,4.0,70,0.00,,,0.00,WUHU216DAVISVP2,2013-01-01 17:27:00,
2013-01-01 12:32:00,71.2,61.5,30.10,East,88,0.0,4.0,71,0.00,,,0.00,WUHU216DAVISVP2,2013-01-01 17:32:00,
2013-01-01 12:37:00,71.7,61.6,30.09,North,360,1.0,5.0,70,0.00,,,0.00,WUHU216DAVISVP2,2013-01-01 17:37:00,
2013-01-01 12:42:00,72.1,61.6,30.09,SE,133,0.0,5.0,69,0.00,,,0.00,WUHU216DAVISVP2,2013-01-01 17:42:00,
2013-01-01 12:47:00,72.1,61.2,30.09,SSW,213,0.0,7.0,68,0.00,,,0.00,WUHU216DAVISVP2,2013-01-01 17:47:00,
2013-01-01 12:52:00,71.8,61.3,30.08,SW,220,0.0,7.0,69,0.00,,,0.00,WUHU216DAVISVP2,2013-01-01 17:52:00,
2013-01-01 12:57:00,71.6,60.7,30.08,SSW,202,0.0,6.0,68,0.00,,,0.00,WUHU216DAVISVP2,2013-01-01 17:57:00,
2013-01-01 13:02:00,71.8,61.3,30.08,South,180,0.0,6.0,69,0.00,,,0.00,WUHU216DAVISVP2,2013-01-01 18:02:00,
2013-01-01 13:07:00,72.4,61.8,30.08,SSW,206,1.0,4.0,69,0.00,,,0.00,WUHU216DAVISVP2,2013-01-01 18:07:00,
2013-01-01 13:12:00,72.9,61.5,30.08,South,190,2.0,9.0,67,0.00,,,0.00,WUHU216DAVISVP2,2013-01-01 18:12:00,
2013-01-01 13:17:00,72.9,61.5,30.08,SSE,148,0.0,9.0,67,0.00,,,0.00,WUHU216DAVISVP2,2013-01-01 18:17:00,
2013-01-01 13:22:00,72.7,61.3,30.07,ESE,120,4.0,4.0,67,0.00,,,0.00,WUHU216DAVISVP2,2013-01-01 18:22:00,
2013-01-01 13:27:00,73.0,61.2,30.07,ESE,109,2.0,4.0,66,0.00,,,0.00,WUHU216DAVISVP2,2013-01-01 18:27:00,
2013-01-01 13:32:00,73.4,61.6,30.07,ESE,115,2.0,4.0,66,0.00,,,0.00,WUHU216DAVISVP2,2013-01-01 18:32:00,
2013-01-01 13:37:00,73.9,61.2,30.07,SSE,167,1.0,4.0,64,0.00,,,0.00,WUHU216DAVISVP2,2013-01-01 18:37:00,
2013-01-01 13:42:00,74.2,61.5,30.06,SSE,149,0.0,5.0,64,0.00,,,0.00,WUHU216DAVISVP2,2013-01-01 18:42:00,
2013-01-01 13:47:00,74.3,61.5,30.06,East,90,0.0,7.0,64,0.00,,,0.00,WUHU216DAVISVP2,2013-01-01 18:47:00,
2013-01-01 13:52:00,74.5,62.2,30.06,NE,44,1.0,7.0,65,0.00,,,0.00,WUHU216DAVISVP2,2013-01-01 18:52:00,
2013-01-01 13:57:00,74.7,61.9,30.06,ESE,123,1.0,3.0,64,0.00,,,0.00,WUHU216DAVISVP2,2013-01-01 18:57:00,
2013-01-01 14:02:00,74.7,61.5,30.06,SSE,158,2.0,6.0,63,0.00,,,0.00,WUHU216DAVISVP2,2013-01-01 19:02:00,
2013-01-01 14:07:00,74.7,61.5,30.06,SW,233,0.0,6.0,63,0.00,,,0.00,WUHU216DAVISVP2,2013-01-01 19:07:00,
2013-01-01 14:12:00,74.8,62.0,30.06,SE,129,0.0,3.0,64,0.00,,,0.00,WUHU216DAVISVP2,2013-01-01 19:12:00,
2013-01-01 14:17:00,75.0,61.8,30.05,NE,53,0.0,4.0,63,0.00,,,0.00,WUHU216DAVISVP2,2013-01-01 19:17:00,
2013-01-01 14:22:00,75.1,61.9,30.05,SSW,205,0.0,4.0,63,0.00,,,0.00,WUHU216DAVISVP2,2013-01-01 19:22:00,
2013-01-01 14:27:00,75.1,61.9,30.05,ESE,115,0.0,3.0,63,0.00,,,0.00,WUHU216DAVISVP2,2013-01-01 19:27:00,
2013-01-01 14:32:00,75.1,61.4,30.05,East,96,0.0,5.0,62,0.00,,,0.00,WUHU216DAVISVP2,2013-01-01 19:32:00,
2013-01-01 14:37:00,75.1,61.4,30.05,SSE,161,0.0,5.0,62,0.00,,,0.00,WUHU216DAVISVP2,2013-01-01 19:37:00,
2013-01-01 14:42:00,74.9,61.2,30.05,South,182,0.0,5.0,62,0.00,,,0.00,WUHU216DAVISVP2,2013-01-01 19:42:00,
2013-01-01 14:47:00,74.4,61.2,30.05,NE,35,0.0,3.0,63,0.00,,,0.00,WUHU216DAVISVP2,2013-01-01 19:47:00,
2013-01-01 14:52:00,74.0,61.3,30.05,ENE,60,0.0,1.0,64,0.00,,,0.00,WUHU216DAVISVP2,2013-01-01 19:52:00,
2013-01-01 14:57:00,73.7,61.0,30.05,NNE,16,0.0,2.0,64,0.00,,,0.00,WUHU216DAVISVP2,2013-01-01 19:57:00,
2013-01-01 15:02:00,73.7,61.0,30.04,NNW,345,0.0,3.0,64,0.00,,,0.00,WUHU216DAVISVP2,2013-01-01 20:02:00,
2013-01-01 15:07:00,73.8,61.1,30.04,SW,225,2.0,3.0,64,0.00,,,0.00,WUHU216DAVISVP2,2013-01-01 20:07:00,
2013-01-01 15:12:00,73.9,61.2,30.04,West,281,0.0,2.0,64,0.00,,,0.00,WUHU216DAVISVP2,2013-01-01 20:12:00,
2013-01-01 15:17:00,74.1,61.4,30.04,NE,55,1.0,2.0,64,0.00,,,0.00,WUHU216DAVISVP2,2013-01-01 20:17:00,
2013-01-01 15:22:00,74.0,60.8,30.04,East,89,2.0,5.0,63,0.00,,,0.00,WUHU216DAVISVP2,2013-01-01 20:22:00,
2013-01-01 15:27:00,74.0,60.8,30.04,ESE,117,0.0,5.0,63,0.00,,,0.00,WUHU216DAVISVP2,2013-01-01 20:27:00,
2013-01-01 15:32:00,73.9,60.7,30.04,SSE,152,0.0,4.0,63,0.00,,,0.00,WUHU216DAVISVP2,2013-01-01 20:32:00,
2013-01-01 15:37:00,73.9,60.7,30.04,SE,132,0.0,3.0,63,0.00,,,0.00,WUHU216DAVISVP2,2013-01-01 20:37:00,
2013-01-01 15:42:00,73.9,60.7,30.04,SSW,196,0.0,3.0,63,0.00,,,0.00,WUHU216DAVISVP2,2013-01-01 20:42:00,
2013-01-01 15:47:00,73.8,60.6,30.04,SE,132,0.0,6.0,63,0.00,,,0.00,WUHU216DAVISVP2,2013-01-01 20:47:00,
2013-01-01 15:52:00,73.6,60.4,30.04,SSE,166,0.0,6.0,63,0.00,,,0.00,WUHU216DAVISVP2,2013-01-01 20:52:00,
2013-01-01 15:57:00,73.4,60.2,30.04,SSE,149,0.0,5.0,63,0.00,,,0.00,WUHU216DAVISVP2,2013-01-01 20:57:00,
2013-01-01 16:02:00,73.2,60.5,30.04,SW,230,3.0,4.0,64,0.00,,,0.00,WUHU216DAVISVP2,2013-01-01 21:02:00,
2013-01-01 16:07:00,73.1,60.4,30.04,SSW,201,0.0,5.0,64,0.00,,,0.00,WUHU216DAVISVP2,2013-01-01 21:07:00,
2013-01-01 16:12:00,73.0,60.3,30.04,South,187,0.0,5.0,64,0.00,,,0.00,WUHU216DAVISVP2,2013-01-01 21:12:00,
2013-01-01 16:17:00,72.9,60.2,30.04,NE,44,0.0,4.0,64,0.00,,,0.00,WUHU216DAVISVP2,2013-01-01 21:17:00,
2013-01-01 16:22:00,72.9,60.7,30.04,ESE,116,0.0,3.0,65,0.00,,,0.00,WUHU216DAVISVP2,2013-01-01 21:22:00,
2013-01-01 16:27:00,72.8,60.6,30.04,SE,134,0.0,3.0,65,0.00,,,0.00,WUHU216DAVISVP2,2013-01-01 21:27:00,
2013-01-01 16:32:00,72.7,60.0,30.04,SW,229,0.0,3.0,64,0.00,,,0.00,WUHU216DAVISVP2,2013-01-01 21:32:00,
2013-01-01 16:37:00,72.6,60.4,30.04,North,9,0.0,3.0,65,0.00,,,0.00,WUHU216DAVISVP2,2013-01-01 21:37:00,
2013-01-01 16:42:00,72.5,60.7,30.04,North,9,0.0,3.0,66,0.00,,,0.00,WUHU216DAVISVP2,2013-01-01 21:42:00,
2013-01-01 16:47:00,72.4,60.6,30.04,North,9,0.0,1.0,66,0.00,,,0.00,WUHU216DAVISVP2,2013-01-01 21:47:00,
2013-01-01 16:52:00,72.2,60.4,30.04,North,9,0.0,1.0,66,0.00,,,0.00,WUHU216DAVISVP2,2013-01-01 21:52:00,
2013-01-01 16:57:00,72.1,60.7,30.04,North,9,0.0,1.0,67,0.00,,,0.00,WUHU216DAVISVP2,2013-01-01 21:57:00,
2013-01-01 17:02:00,71.9,60.5,30.04,WSW,238,0.0,2.0,67,0.00,,,0.00,WUHU216DAVISVP2,2013-01-01 22:02:00,
2013-01-01 17:07:00,71.6,60.3,30.04,ESE,123,0.0,2.0,67,0.00,,,0.00,WUHU216DAVISVP2,2013-01-01 22:07:00,
2013-01-01 17:12:00,71.4,60.5,30.05,ESE,123,0.0,2.0,68,0.00,,,0.00,WUHU216DAVISVP2,2013-01-01 22:12:00,
2013-01-01 17:17:00,71.2,60.3,30.05,ESE,122,0.0,1.0,68,0.00,,,0.00,WUHU216DAVISVP2,2013-01-01 22:17:00,
2013-01-01 17:22:00,71.0,60.5,30.05,ESE,122,0.0,0.0,69,0.00,,,0.00,WUHU216DAVISVP2,2013-01-01 22:22:00,
2013-01-01 17:27:00,70.7,60.2,30.05,ESE,121,0.0,0.0,69,0.00,,,0.00,WUHU216DAVISVP2,2013-01-01 22:27:00,
2013-01-01 17:32:00,70.5,60.4,30.05,ESE,120,0.0,0.0,70,0.00,,,0.00,WUHU216DAVISVP2,2013-01-01 22:32:00,
2013-01-01 17:37:00,70.1,60.0,30.04,ESE,121,0.0,1.0,70,0.00,,,0.00,WUHU216DAVISVP2,2013-01-01 22:37:00,
2013-01-01 17:42:00,69.8,60.1,30.04,ESE,120,0.0,1.0,71,0.00,,,0.00,WUHU216DAVISVP2,2013-01-01 22:42:00,
2013-01-01 17:47:00,69.6,59.9,30.04,ESE,119,0.0,0.0,71,0.00,,,0.00,WUHU216DAVISVP2,2013-01-01 22:47:00,
2013-01-01 17:52:00,69.2,59.6,30.03,ESE,115,0.0,0.0,71,0.00,,,0.00,WUHU216DAVISVP2,2013-01-01 22:52:00,
2013-01-01 17:57:00,69.0,59.8,30.03,ESE,110,0.0,0.0,72,0.00,,,0.00,WUHU216DAVISVP2,2013-01-01 22:57:00,
2013-01-01 18:02:00,68.6,59.4,30.03,ESE,109,0.0,0.0,72,0.00,,,0.00,WUHU216DAVISVP2,2013-01-01 23:02:00,
2013-01-01 18:07:00,68.3,59.5,30.03,ESE,123,0.0,0.0,73,0.00,,,0.00,WUHU216DAVISVP2,2013-01-01 23:07:00,
2013-01-01 18:12:00,67.9,59.4,30.03,ESE,123,0.0,0.0,74,0.00,,,0.00,WUHU216DAVISVP2,2013-01-01 23:12:00,
2013-01-01 18:17:00,67.5,59.1,30.03,ESE,123,0.0,0.0,74,0.00,,,0.00,WUHU216DAVISVP2,2013-01-01 23:17:00,
2013-01-01 18:22:00,67.0,58.9,30.03,ESE,123,0.0,0.0,75,0.00,,,0.00,WUHU216DAVISVP2,2013-01-01 23:22:00,
2013-01-01 18:27:00,66.7,59.0,30.03,ESE,123,0.0,0.0,76,0.00,,,0.00,WUHU216DAVISVP2,2013-01-01 23:27:00,
2013-01-01 18:32:00,66.4,58.7,30.03,ESE,123,0.0,0.0,76,0.00,,,0.00,WUHU216DAVISVP2,2013-01-01 23:32:00,
2013-01-01 18:37:00,66.1,58.4,30.04,ESE,123,0.0,0.0,76,0.00,,,0.00,WUHU216DAVISVP2,2013-01-01 23:37:00,
2013-01-01 18:42:00,65.8,58.5,30.04,ESE,123,0.0,0.0,77,0.00,,,0.00,WUHU216DAVISVP2,2013-01-01 23:42:00,
2013-01-01 18:47:00,65.6,58.3,30.04,ESE,123,0.0,0.0,77,0.00,,,0.00,WUHU216DAVISVP2,2013-01-01 23:47:00,
2013-01-01 18:52:00,65.3,58.4,30.04,ESE,123,0.0,0.0,78,0.00,,,0.00,WUHU216DAVISVP2,2013-01-01 23:52:00,
2013-01-01 18:57:00,65.1,58.2,30.04,ESE,123,0.0,0.0,78,0.00,,,0.00,WUHU216DAVISVP2,2013-01-01 23:57:00,
2013-01-01 19:02:00,64.8,58.2,30.04,ESE,123,0.0,0.0,79,0.00,,,0.00,WUHU216DAVISVP2,2013-01-02 00:02:00,
2013-01-01 19:07:00,64.6,58.0,30.04,ESE,123,0.0,0.0,79,0.00,,,0.00,WUHU216DAVISVP2,2013-01-02 00:07:00,
2013-01-01 19:12:00,64.3,58.1,30.04,ESE,123,0.0,0.0,80,0.00,,,0.00,WUHU216DAVISVP2,2013-01-02 00:12:00,
2013-01-01 19:17:00,64.1,58.2,30.04,ESE,123,0.0,0.0,81,0.00,,,0.00,WUHU216DAVISVP2,2013-01-02 00:17:00,
2013-01-01 19:22:00,63.8,57.9,30.04,ESE,123,0.0,0.0,81,0.00,,,0.00,WUHU216DAVISVP2,2013-01-02 00:22:00,
2013-01-01 19:27:00,63.6,57.7,30.04,ESE,123,0.0,0.0,81,0.00,,,0.00,WUHU216DAVISVP2,2013-01-02 00:27:00,
2013-01-01 19:32:00,63.3,57.8,30.04,ESE,123,0.0,0.0,82,0.00,,,0.00,WUHU216DAVISVP2,2013-01-02 00:32:00,
2013-01-01 19:37:00,63.0,57.8,30.04,ESE,123,0.0,0.0,83,0.00,,,0.00,WUHU216DAVISVP2,2013-01-02 00:37:00,
2013-01-01 19:42:00,62.7,57.5,30.04,ESE,123,0.0,0.0,83,0.00,,,0.00,WUHU216DAVISVP2,2013-01-02 00:42:00,
2013-01-01 19:47:00,62.5,57.3,30.04,ESE,123,0.0,0.0,83,0.00,,,0.00,WUHU216DAVISVP2,2013-01-02 00:47:00,
2013-01-01 19:52:00,62.3,57.4,30.03,ESE,123,0.0,0.0,84,0.00,,,0.00,WUHU216DAVISVP2,2013-01-02 00:52:00,
2013-01-01 19:57:00,62.0,57.1,30.04,ESE,123,0.0,0.0,84,0.00,,,0.00,WUHU216DAVISVP2,2013-01-02 00:57:00,
2013-01-01 20:02:00,61.8,57.3,30.04,ESE,123,0.0,0.0,85,0.00,,,0.00,WUHU216DAVISVP2,2013-01-02 01:02:00,
2013-01-01 20:07:00,61.7,57.2,30.04,ESE,123,0.0,0.0,85,0.00,,,0.00,WUHU216DAVISVP2,2013-01-02 01:07:00,
2013-01-01 20:12:00,61.4,56.9,30.03,ESE,123,0.0,0.0,85,0.00,,,0.00,WUHU216DAVISVP2,2013-01-02 01:12:00,
2013-01-01 20:17:00,61.3,57.1,30.04,ESE,123,0.0,0.0,86,0.00,,,0.00,WUHU216DAVISVP2,2013-01-02 01:17:00,
2013-01-01 20:22:00,61.1,56.9,30.04,ESE,123,0.0,0.0,86,0.00,,,0.00,WUHU216DAVISVP2,2013-01-02 01:22:00,
2013-01-01 20:27:00,60.9,56.7,30.04,ESE,123,0.0,0.0,86,0.00,,,0.00,WUHU216DAVISVP2,2013-01-02 01:27:00,
2013-01-01 20:32:00,60.8,56.9,30.04,ESE,123,0.0,0.0,87,0.00,,,0.00,WUHU216DAVISVP2,2013-01-02 01:32:00,
2013-01-01 20:37:00,60.6,56.7,30.04,ESE,123,0.0,0.0,87,0.00,,,0.00,WUHU216DAVISVP2,2013-01-02 01:37:00,
2013-01-01 20:42:00,60.5,56.9,30.04,ESE,123,0.0,0.0,88,0.00,,,0.00,WUHU216DAVISVP2,2013-01-02 01:42:00,
2013-01-01 20:47:00,60.4,56.8,30.04,ESE,123,0.0,0.0,88,0.00,,,0.00,WUHU216DAVISVP2,2013-01-02 01:47:00,
2013-01-01 20:52:00,60.2,56.6,30.04,ESE,123,0.0,0.0,88,0.00,,,0.00,WUHU216DAVISVP2,2013-01-02 01:52:00,
2013-01-01 20:57:00,60.0,56.4,30.04,ESE,123,0.0,0.0,88,0.00,,,0.00,WUHU216DAVISVP2,2013-01-02 01:57:00,
2013-01-01 21:02:00,59.9,56.6,30.04,ESE,123,0.0,0.0,89,0.00,,,0.00,WUHU216DAVISVP2,2013-01-02 02:02:00,
2013-01-01 21:07:00,59.8,56.5,30.04,ESE,123,0.0,0.0,89,0.00,,,0.00,WUHU216DAVISVP2,2013-01-02 02:07:00,
2013-01-01 21:12:00,59.5,56.2,30.03,ESE,123,0.0,0.0,89,0.00,,,0.00,WUHU216DAVISVP2,2013-01-02 02:12:00,
2013-01-01 21:17:00,59.4,56.1,30.03,ESE,123,0.0,0.0,89,0.00,,,0.00,WUHU216DAVISVP2,2013-01-02 02:17:00,
2013-01-01 21:22:00,59.2,56.2,30.03,ESE,123,0.0,0.0,90,0.00,,,0.00,WUHU216DAVISVP2,2013-01-02 02:22:00,
2013-01-01 21:27:00,59.1,56.1,30.03,ESE,123,0.0,0.0,90,0.00,,,0.00,WUHU216DAVISVP2,2013-01-02 02:27:00,
2013-01-01 21:32:00,59.0,56.0,30.03,ESE,123,0.0,0.0,90,0.00,,,0.00,WUHU216DAVISVP2,2013-01-02 02:32:00,
2013-01-01 21:37:00,58.9,56.2,30.03,ESE,123,0.0,0.0,91,0.00,,,0.00,WUHU216DAVISVP2,2013-01-02 02:37:00,
2013-01-01 21:42:00,59.0,56.3,30.03,ESE,123,0.0,0.0,91,0.00,,,0.00,WUHU216DAVISVP2,2013-01-02 02:42:00,
2013-01-01 21:47:00,59.1,56.4,30.03,ESE,123,0.0,0.0,91,0.00,,,0.00,WUHU216DAVISVP2,2013-01-02 02:47:00,
2013-01-01 21:52:00,59.1,56.4,30.03,ESE,123,0.0,0.0,91,0.00,,,0.00,WUHU216DAVISVP2,2013-01-02 02:52:00,
2013-01-01 21:57:00,59.2,56.5,30.03,ESE,123,0.0,0.0,91,0.00,,,0.00,WUHU216DAVISVP2,2013-01-02 02:57:00,
2013-01-01 22:02:00,59.3,56.6,30.03,ESE,123,0.0,0.0,91,0.00,,,0.00,WUHU216DAVISVP2,2013-01-02 03:02:00,
2013-01-01 22:07:00,59.4,56.7,30.03,ESE,123,0.0,0.0,91,0.00,,,0.00,WUHU216DAVISVP2,2013-01-02 03:07:00,
2013-01-01 22:12:00,59.5,57.1,30.04,ESE,123,0.0,0.0,92,0.00,,,0.00,WUHU216DAVISVP2,2013-01-02 03:12:00,
2013-01-01 22:17:00,59.6,56.9,30.04,ESE,123,0.0,0.0,91,0.00,,,0.00,WUHU216DAVISVP2,2013-01-02 03:17:00,
2013-01-01 22:22:00,59.6,56.9,30.03,ESE,123,0.0,0.0,91,0.00,,,0.00,WUHU216DAVISVP2,2013-01-02 03:22:00,
2013-01-01 22:27:00,59.6,56.9,30.03,ESE,123,0.0,0.0,91,0.00,,,0.00,WUHU216DAVISVP2,2013-01-02 03:27:00,
2013-01-01 22:32:00,59.6,56.9,30.03,ESE,123,0.0,0.0,91,0.00,,,0.00,WUHU216DAVISVP2,2013-01-02 03:32:00,
2013-01-01 22:37:00,59.4,56.7,30.03,ESE,123,0.0,0.0,91,0.00,,,0.00,WUHU216DAVISVP2,2013-01-02 03:37:00,
2013-01-01 22:42:00,59.3,56.3,30.03,ESE,123,0.0,0.0,90,0.00,,,0.00,WUHU216DAVISVP2,2013-01-02 03:42:00,
2013-01-01 22:47:00,59.1,56.1,30.03,ESE,123,0.0,0.0,90,0.00,,,0.00,WUHU216DAVISVP2,2013-01-02 03:47:00,
2013-01-01 22:52:00,58.9,56.2,30.03,ESE,123,0.0,0.0,91,0.00,,,0.00,WUHU216DAVISVP2,2013-01-02 03:52:00,
2013-01-01 22:57:00,58.7,56.0,30.03,ESE,123,0.0,0.0,91,0.00,,,0.00,WUHU216DAVISVP2,2013-01-02 03:57:00,
2013-01-01 23:02:00,58.6,55.9,30.03,ESE,123,0.0,0.0,91,0.00,,,0.00,WUHU216DAVISVP2,2013-01-02 04:02:00,
2013-01-01 23:07:00,58.5,56.1,30.03,ESE,123,0.0,0.0,92,0.00,,,0.00,WUHU216DAVISVP2,2013-01-02 04:07:00,
2013-01-01 23:12:00,58.4,56.0,30.03,ESE,123,0.0,0.0,92,0.00,,,0.00,WUHU216DAVISVP2,2013-01-02 04:12:00,
2013-01-01 23:17:00,58.3,55.9,30.03,ESE,123,0.0,0.0,92,0.00,,,0.00,WUHU216DAVISVP2,2013-01-02 04:17:00,
2013-01-01 23:22:00,58.3,55.9,30.02,ESE,123,0.0,0.0,92,0.00,,,0.00,WUHU216DAVISVP2,2013-01-02 04:22:00,
2013-01-01 23:27:00,58.2,55.8,30.02,ESE,123,0.0,0.0,92,0.00,,,0.00,WUHU216DAVISVP2,2013-01-02 04:27:00,
2013-01-01 23:32:00,58.2,56.1,30.02,ESE,123,0.0,0.0,93,0.00,,,0.00,WUHU216DAVISVP2,2013-01-02 04:32:00,
2013-01-01 23:37:00,58.2,56.1,30.02,ESE,123,0.0,0.0,93,0.00,,,0.00,WUHU216DAVISVP2,2013-01-02 04:37:00,
2013-01-01 23:42:00,58.2,56.1,30.02,ESE,123,0.0,0.0,93,0.00,,,0.00,WUHU216DAVISVP2,2013-01-02 04:42:00,
2013-01-01 23:47:00,58.3,56.2,30.01,ESE,123,0.0,0.0,93,0.00,,,0.00,WUHU216DAVISVP2,2013-01-02 04:47:00,
2013-01-01 23:52:00,58.3,56.2,30.01,ESE,123,0.0,0.0,93,0.00,,,0.00,WUHU216DAVISVP2,2013-01-02 04:52:00,
2013-01-01 23:57:00,58.3,56.2,30.01,ESE,123,0.0,0.0,93,0.00,,,0.00,WUHU216DAVISVP2,2013-01-02 04:57:00,